HST 1 20580U 90037B 25340.32599985 .00012669 00000+0 44335-3 0 9993 2 20580 28.4701 316.1394 0001971 164.3487 195.7169 15.27914955759015 POLAR 1 23802U 96013A 25335.86121764 .00000137 00000+0 00000+0 0 9996 2 23802 79.6185 229.2704 6274469 215.7594 78.7365 1.29846141142290 SWAS 1 25560U 98071A 25340.36276423 .00007309 00000+0 48169-3 0 9999 2 25560 69.8974 4.1796 0007212 223.7623 136.2969 15.07874940468185 CXO 1 25867U 99040B 25341.32747404 .00000528 00000+0 00000+0 0 9999 2 25867 52.9844 122.6350 8152013 310.8652 359.9323 0.37803920 16593 XMM-NEWTON 1 25989U 99066A 25340.88365356 .00000037 00000+0 00000+0 0 9999 2 25989 65.4618 285.5211 4745865 68.3086 0.1961 0.50131828 22042 TERRA 1 25994U 99068A 25340.64836633 .00001011 00000+0 21555-3 0 9997 2 25994 97.9757 32.5562 0003497 110.1193 3.2989 14.60942173381490 CLUSTER II-FM7 (SAMBA) 1 26410U 00041A 25341.20638592 .00002699 00000+0 00000+0 0 9992 2 26410 147.5442 24.6945 8748092 240.3658 0.1717 0.44848431 19459 CLUSTER II-FM8 (TANGO) 1 26464U 00045B 25342.01689451 .00002625 00000+0 00000+0 0 9994 2 26464 147.8405 25.3442 8756376 240.8888 0.0021 0.44416966 19455 ODIN 1 26702U 01007A 25340.64366747 .00044896 00000+0 77817-3 0 9995 2 26702 97.4226 8.3784 0004845 123.2520 236.9196 15.50754282359388 TIMED 1 26998U 01055B 25340.21857349 .00003947 00000+0 36749-3 0 9992 2 26998 74.0699 263.3866 0001390 225.0460 135.0611 14.94652289301985 CORIOLIS 1 27640U 03001A 25340.61192912 .00000235 00000+0 13138-3 0 9996 2 27640 98.7141 345.4417 0014808 50.3445 309.9036 14.19868604186890 SORCE 1 27651U 03004A 25340.52200802 .00006538 00000+0 49713-3 0 9999 2 27651 39.9914 279.7966 0015139 107.9032 252.3414 15.02209944242909 MOST 1 27843U 03031D 25340.60260268 .00000201 00000+0 11226-3 0 9992 2 27843 98.7067 346.0115 0010957 88.8897 271.3535 14.21267703163350 SCISAT 1 1 27858U 03036A 25340.61219159 .00001394 00000+0 18399-3 0 9999 2 27858 73.9292 193.8795 0008450 296.4220 63.6088 14.81105187202931 SWIFT 1 28485U 04047A 25340.30400592 .00059579 00000+0 10046-2 0 9996 2 28485 20.5525 212.8203 0003394 174.2552 185.7930 15.49941227156718 HINODE (SOLAR-B) 1 29479U 06041A 25340.62455934 .00001499 00000+0 26776-3 0 9997 2 29479 98.0652 354.5559 0017617 174.8975 185.2413 14.68287234 26616 SHIJIAN-6 02A (SJ-6 02A) 1 29505U 06046A 25340.64580844 .00012099 00000+0 66635-3 0 9999 2 29505 97.6624 15.3490 0004800 85.9287 274.2492 15.14162949 43100 SHIJIAN-6 02B (SJ-6 02B) 1 29506U 06046B 25340.61953207 .00003288 00000+0 26523-3 0 9996 2 29506 97.6872 6.2759 0014621 357.1739 2.9400 15.00498329 41855 FGRST (GLAST) 1 33053U 08029A 25340.64202431 .00005617 00000+0 22120-3 0 9997 2 33053 25.5821 100.1156 0008090 213.0314 146.9719 15.22531190966449 SDO 1 36395U 10005A 25340.29939984 -.00000084 00000+0 00000+0 0 9990 2 36395 34.2480 89.2844 0001344 133.9883 217.9539 1.00269682 58127 CRYOSAT 2 1 36508U 10013A 25340.65687687 .00000447 00000+0 11025-3 0 9990 2 36508 92.0264 230.6974 0002243 93.4597 266.6867 14.51898991830148 X-SAT 1 37389U 11015C 25340.57698081 .00000307 00000+0 14805-3 0 9996 2 37389 98.3305 322.0277 0013877 183.8646 176.2430 14.25125573760242 GCOM-W1 (SHIZUKU) 1 38337U 12025A 25340.57334225 .00001371 00000+0 31439-3 0 9993 2 38337 98.2206 278.8614 0001482 71.5649 101.5472 14.57110967720983 NUSTAR 1 38358U 12031A 25340.66670139 .00027468 00000+0 17528-2 0 9997 2 38358 6.0286 35.7037 0007818 136.5215 128.1746 15.06283233 1309 NEOSSAT 1 39089U 13009D 25340.59027430 .00000431 00000+0 16389-3 0 9993 2 39089 98.4076 160.2718 0012116 99.7018 260.5537 14.35725375669107 BRITE-AUSTRIA 1 39091U 13009F 25340.40539467 .00000498 00000+0 18441-3 0 9998 2 39091 98.3889 159.6890 0011350 95.3044 264.9438 14.36430404669378 IRIS 1 39197U 13033A 25340.60259638 .00003352 00000+0 39521-3 0 9997 2 39197 97.9390 175.4072 0023646 227.1434 132.7795 14.85243150671784 HISAKI (SPRINT-A) 1 39253U 13049A 25340.60890459 .00000142 00000+0 10146-3 0 9995 2 39253 29.7192 119.0690 0136961 255.6806 102.8524 13.55520299605271 CASSIOPE 1 39265U 13055A 25340.54579535 .00066380 18038-6 89067-3 0 9998 2 39265 80.9258 298.2665 0344609 345.7571 13.4114 15.10725557638431 STSAT-3 1 39422U 13066G 25340.59399351 .00007228 00000+0 56479-3 0 9996 2 39422 97.5992 309.0959 0014668 334.9798 25.0714 15.01309693655299 SWARM B 1 39451U 13067A 25340.63512832 .00006577 00000+0 24748-3 0 9995 2 39451 87.7448 40.7089 0003321 88.7337 271.4292 15.26949574653840 SWARM A 1 39452U 13067B 25340.67161489 .00017952 00000+0 36369-3 0 9999 2 39452 87.3361 127.4981 0002304 87.9460 272.2062 15.46280849676454 SWARM C 1 39453U 13067C 25340.67151222 .00017905 00000+0 36278-3 0 9991 2 39453 87.3359 126.0834 0002291 88.3054 271.8467 15.46277842676412 BRITE-CA1 (TORONTO) 1 40020U 14033L 25340.31925278 .00003190 00000+0 48953-3 0 9992 2 40020 97.9492 108.1945 0079491 173.5140 186.7116 14.72178803613839 OCO 2 1 40059U 14035A 25340.60553975 .00001193 00000+0 27461-3 0 9991 2 40059 98.2207 279.6385 0000913 66.6405 293.4889 14.57150931608001 BRITE-PL2 (HEWELIUSZ) 1 40119U 14049B 25340.57052925 .00004508 00000+0 43165-3 0 9990 2 40119 97.9000 86.4048 0014861 33.2870 326.9281 14.93610052612680 MMS 1 1 40482U 15011A 25340.66670139 -.00000559 00000+0 00000+0 0 9996 2 40482 69.2056 351.5925 8507478 163.2592 101.8546 0.28353352 1361 MMS 2 1 40483U 15011B 25340.66670139 -.00000559 00000+0 00000+0 0 9997 2 40483 69.2031 351.5831 8508927 163.2758 101.8216 0.28353361 1369 MMS 3 1 40484U 15011C 25340.66670139 -.00000559 00000+0 00000+0 0 9998 2 40484 69.2077 351.5996 8508880 163.2717 101.8172 0.28353362 1367 MMS 4 1 40485U 15011D 25340.66670139 -.00000560 00000+0 00000+0 0 9991 2 40485 69.2071 351.5921 8510195 163.2586 101.8548 0.28353355 1354 ASTROSAT 1 40930U 15052A 25340.32378042 .00003152 00000+0 30545-3 0 9992 2 40930 5.9964 103.0984 0007824 164.7540 195.2824 14.81990632551166 DAMPE 1 41173U 15078A 25340.55696095 .00002804 00000+0 98645-4 0 9995 2 41173 97.4542 340.1867 0013410 45.5773 314.6562 15.30125780555080 PISAT 1 41784U 16059B 25340.62086320 .00002361 00000+0 41274-3 0 9998 2 41784 97.8155 344.4533 0030701 100.2091 260.2579 14.68472066491471 HXMT (HUIYAN) 1 42758U 17034A 25340.59830868 .00006198 00000+0 32319-3 0 9996 2 42758 43.0117 173.7072 0032356 3.9927 356.1173 15.16172998468407 FLYING LAPTOP 1 42831U 17042G 25340.59765847 .00006095 00000+0 49533-3 0 9993 2 42831 97.4217 139.5005 0015057 68.7056 291.5774 14.99845165457578 ZHANGHENG 1-01 (CSES-1) 1 43194U 18015C 25340.62070975 .00017282 00000+0 78469-3 0 9992 2 43194 97.6654 137.6904 0017760 227.4481 132.5256 15.20715629435373 SALSAT 1 46495U 20068K 25340.43438351 .00014698 00000+0 57075-3 0 9993 2 46495 97.8778 327.3672 0008642 256.1755 103.8520 15.26163129285928 IXPE 1 49954U 21121A 25340.66670139 .00017531 00000+0 10505-2 0 9999 2 49954 0.2325 331.3084 0007000 48.2552 74.2323 15.07864601 5486